Change the Weather History Date:

Tuesday, July 9, 2013

  Actual Average Record
Temperature  
Mean Temperature 82 °F -  
Max Temperature 90 °F 89 °F 92 °F (1976)
Min Temperature 75 °F 64 °F 57 °F (1997)
Cooling Degree Days 18    
Growing Degree Days 32 (Base 50)    
Moisture  
Dew Point 74 °F    
Average Humidity 78    
Maximum Humidity 94    
Minimum Humidity 55    
Precipitation  
Precipitation 0.00 in - - ()
Sea Level Pressure  
Sea Level Pressure 29.96 in    
Wind  
Wind Speed 9 mph (SW)    
Max Wind Speed 15 mph    
Max Gust Speed -    
Visibility 10 miles    
Events Rain    
Averages and records for this station are not official NWS values.
T = Trace of Precipitation, MM = Missing Value Source: NWS Daily Summary

Daily Weather History Graph

Daily Weather History Graph

Search for Another Location

Airport or City:

Trip Planner

Search our weather history database for the weather conditions in past years. The results will help you decide how hot, cold, wet, or windy it might be!

Date:

Astronomy

Jul. 09, 2013 Rise Set
Actual Time 5:33 AM CDT 8:27 PM CDT
Civil Twilight 5:01 AM CDT 9:00 PM CDT
Nautical Twilight 4:20 AM CDT 9:41 PM CDT
Astronomical Twilight 3:32 AM CDT 10:28 PM CDT
Moon 6:58 AM CDT (7/9) 9:04 PM CDT (7/9)
Length of Visible Light 15h 58m
Length of Day
14h 53m
New Moon, 2% of the Moon is Illuminated
Jul 9
New Moon
Jul 15
First Quarter
Jul 22
Full
Jul 29
Last Quarter
Aug 6
New

Hourly Weather History & Observations

Time (CDT) Temp. Heat Index Dew Point Humidity Pressure Visibility Wind Dir Wind Speed Gust Speed Precip Events Conditions
12:56 AM 75.9 °F - 73.9 °F 94% 30.01 in 7.0 mi SSW 6.9 mph - N/A   Scattered Clouds
1:56 AM 75.9 °F - 73.9 °F 94% 30.00 in 10.0 mi SSW 8.1 mph - N/A   Scattered Clouds
2:56 AM 77.0 °F - 73.9 °F 90% 30.00 in 10.0 mi SSW 8.1 mph - N/A   Mostly Cloudy
3:56 AM 77.0 °F - 73.9 °F 90% 30.00 in 10.0 mi SW 6.9 mph - 0.00 in Rain Light Rain
4:56 AM 77.0 °F - 73.9 °F 90% 30.00 in 10.0 mi SW 6.9 mph - 0.00 in   Clear
5:56 AM 77.0 °F - 72.9 °F 87% 30.00 in 10.0 mi SW 10.4 mph - 0.00 in   Scattered Clouds
6:56 AM 77.0 °F - 73.9 °F 90% 29.99 in 10.0 mi SSW 8.1 mph - N/A   Clear
7:56 AM 77.9 °F - 72.9 °F 84% 29.99 in 10.0 mi SW 11.5 mph - N/A   Clear
8:56 AM 79.0 °F - 72.9 °F 81% 30.00 in 10.0 mi SW 10.4 mph - N/A   Clear
9:56 AM 79.9 °F - 73.9 °F 82% 30.01 in 7.0 mi WSW 8.1 mph - 0.00 in Rain Light Rain
10:56 AM 81.9 °F 86.6 °F 72.0 °F 72% 30.01 in 10.0 mi West 8.1 mph - 0.00 in   Partly Cloudy
11:56 AM 86.9 °F 93.3 °F 72.0 °F 61% 29.99 in 10.0 mi SW 9.2 mph - 0.00 in   Clear
12:56 PM 86.0 °F 93.8 °F 73.9 °F 67% 29.98 in 10.0 mi SW 9.2 mph - N/A   Partly Cloudy
1:56 PM 90.9 °F 98.9 °F 72.9 °F 55% 29.96 in 10.0 mi WSW 15.0 mph - N/A   Partly Cloudy
2:56 PM 88.0 °F 96.5 °F 73.9 °F 63% 29.94 in 10.0 mi SW 11.5 mph - N/A   Clear
3:56 PM 86.9 °F 95.9 °F 74.8 °F 67% 29.92 in 10.0 mi SW 11.5 mph - N/A   Clear
4:56 PM 86.9 °F 95.9 °F 74.8 °F 67% 29.92 in 10.0 mi SW 11.5 mph - N/A   Clear
5:56 PM 84.9 °F 94.1 °F 75.9 °F 74% 29.90 in 10.0 mi SSW 11.5 mph - N/A   Clear
6:56 PM 86.9 °F 95.0 °F 73.9 °F 65% 29.89 in 10.0 mi SW 12.7 mph - N/A   Clear
7:56 PM 84.9 °F 93.3 °F 74.8 °F 72% 29.89 in 10.0 mi SSW 11.5 mph - N/A   Partly Cloudy
8:56 PM 82.9 °F 89.9 °F 74.8 °F 76% 29.88 in 10.0 mi SSW 10.4 mph - N/A   Clear
9:56 PM 81.9 °F 87.7 °F 73.9 °F 77% 29.90 in 10.0 mi SW 9.2 mph - N/A   Clear
10:56 PM 79.9 °F - 73.9 °F 82% 29.91 in 10.0 mi SSW 9.2 mph - N/A   Clear
11:56 PM 79.0 °F - 74.8 °F 87% 29.91 in 10.0 mi SSW 9.2 mph - N/A   Clear